Overview Statistics Trail Chart Weather Telemetry Raw packets
 

This is the latest recevied weather packets stored in our database for station/object N9BID. If no packets are shown the sender has not sent any weather packets the latest 10 day(s).

<< 103 104 105 106 107 108 109 >>
Time Temp. Humidity Pressure Rain* Wind** Luminosity Snow
1787787667 22.78° C 83% 1013.1 hPa 0 mm - 57 W/m² -
1787787366 22.78° C 81% 1013 hPa 0 mm - 46 W/m² -
1787787061 23.33° C 80% 1012.9 hPa 0 mm - 79 W/m² -
1787786761 23.33° C 80% 1012.9 hPa 0 mm - 86 W/m² -
1787786455 22.78° C 80% 1012.7 hPa 0 mm - 96 W/m² -
1787786151 22.78° C 81% 1013 hPa 0 mm - 111 W/m² -
1787785847 22.22° C 82% 1012.9 hPa 0 mm - 122 W/m² -
1787785542 23.33° C 79% 1012.9 hPa 0 mm - 40 W/m² -
1787785242 23.33° C 78% 1012.9 hPa 0 mm - 140 W/m² -
1787784937 23.33° C 79% 1013.1 hPa 0 mm - 155 W/m² -
1787784636 22.78° C 80% 1012.9 hPa 0 mm - 161 W/m² -
1787784335 23.33° C 80% 1012.9 hPa 0 mm - 174 W/m² -
1787784030 23.33° C 82% 1012.7 hPa 0 mm - 198 W/m² -
1787783726 22.78° C 81% 1012.7 hPa 0 mm - 211 W/m² -
1787783426 22.78° C 82% 1012.9 hPa 0 mm - 209 W/m² -
1787783122 22.78° C 84% 1012.8 hPa 0 mm - 241 W/m² -
1787782821 22.78° C 86% 1012.9 hPa 0 mm - 243 W/m² -
1787782517 22.22° C 85% 1012.8 hPa 0 mm - 282 W/m² -
1787782216 21.67° C 88% 1012.9 hPa 0 mm - 312 W/m² -
1787781913 21.11° C 89% 1012.9 hPa 0 mm - 210 W/m² -
1787781612 20.56° C 90% 1012.7 hPa 0 mm - 122 W/m² -
1787781305 20.56° C 90% 1012.9 hPa 0 mm - 117 W/m² -
1787781003 20.56° C 94% 1012.9 hPa 0 mm - 147 W/m² -
1787780697 19.44° C 97% 1012.8 hPa 0 mm - 395 W/m² -
1787780391 19.44° C 98% 1012.7 hPa 0 mm - 129 W/m² -

* Rain latest hour (hover to see other rain measurements)
** Current wind speed in m/s (hover to see current wind gust speed)